Location: Cisewo
(53.3833°N, 14.9000°E)
Time: 11:57:28
(UTC+00:00)

Cosmos 2344 - Pass Details

Date: 18 April 2021
Orbit: 1240 x 3002 km, 63.3° (Epoch: 14 May)

Event Time Altitude Azimuth Distance (km) Brightness Sun altitude
Rises 20:39:26 0° 235° (SW) 4,207 6.3 -18.9°
Reaches altitude 10° 20:42:08 10° 237° (WSW) 3,210 5.7 -19.2°
Maximum altitude 20:49:32 75° 323° (NW) 1,336 3.8 -19.8°
Drops below altitude 10° 20:58:03 10° 50° (NE) 3,659 6.1 -20.5°
Sets 21:01:21 0° 52° (NE) 4,835 6.7 -20.7°
